Home   Weather   Rabat   Past weeks
Flag for Morocco

Past Weather in Rabat, Morocco — Yesterday and Last 2 Weeks

Now
52 °F

Scattered clouds.


Feels Like: 51 °F
Forecast: 72 / 59 °F
Wind: 5 mph from Southeast

Location: Rabat-Sale

Current Time: Oct 18, 2019 at 7:33:14 am

Latest Report: Oct 18, 2019 at 7:00 am


Visibility: 5 mi

Pressure: 30.09 "Hg

Humidity: 100%

Dew Point: 52 °F

Location of RabatLocation

Past Weather in Rabat — Graph

°F

Rabat Temperature Yesterday

Maximum temperature yesterday: 72 °F (at 12:30 pm)
Minimum temperature yesterday: 48 °F (at 7:30 am)
Average temperature yesterday: 59 °F

High & Low Weather Summary for the Past Weeks

 TemperatureHumidityPressure
High91 °F (Oct 13, 12:30 pm)100% (Oct 4, 12:30 am)30.18 "Hg (Oct 4, 12:30 am)
Low48 °F (Oct 16, 3:00 am)30% (Oct 13, 12:30 pm)29.86 "Hg (Oct 13, 2:00 pm)
Average65 °F81%30.04 "Hg
* Reported Oct 3 6:00 am — Oct 18 6:30 am, Rabat. Weather by CustomWeather, © 2019

Note: Actual official high and low records may vary slightly from our data, if they occured in-between our weather recording intervals... More about our weather records

Advertising

Rabat Weather History for the Previous 24 Hours

Scroll right to see more
 ConditionsComfort  
Time TempWeatherWind HumidityBarometerVisibility
6:30 am
Fri, Oct 18
52 °FPassing clouds.6 mph94%30.09 "Hg5 mi
6:00 am52 °FPassing clouds.5 mph94%30.07 "Hg5 mi
5:30 am52 °FPassing clouds.6 mph94%30.09 "Hg5 mi
5:00 am54 °FPassing clouds.5 mph94%30.09 "Hg5 mi
4:00 am54 °FPassing clouds.6 mph94%30.09 "Hg5 mi
3:30 am54 °FPassing clouds.7 mph94%30.09 "Hg5 mi
3:00 am54 °FPassing clouds.7 mph94%30.12 "Hg5 mi
2:30 am54 °FPassing clouds.5 mph100%30.12 "Hg5 mi
2:00 am54 °FPassing clouds.6 mph94%30.12 "Hg5 mi
1:30 am54 °FPassing clouds.6 mph94%30.12 "Hg5 mi
1:00 am54 °FPassing clouds.6 mph94%30.12 "Hg5 mi
12:30 am52 °FPassing clouds.7 mph94%30.12 "Hg5 mi
12:00 am52 °FPassing clouds.7 mph94%30.12 "Hg5 mi
11:30 pm
Thu, Oct 17
52 °FPassing clouds.6 mph88%30.15 "Hg5 mi
11:00 pm52 °FPassing clouds.5 mph88%30.15 "Hg5 mi
10:30 pm52 °FPassing clouds.5 mph94%30.15 "Hg5 mi
9:30 pm55 °FPassing clouds.3 mph88%30.12 "Hg5 mi
9:00 pm55 °FPassing clouds.5 mph88%30.12 "Hg5 mi
8:30 pm59 °FPassing clouds.5 mph82%30.09 "Hg5 mi
8:00 pm61 °FPassing clouds.5 mph83%30.09 "Hg5 mi
7:30 pm64 °FPassing clouds.6 mph73%30.09 "Hg5 mi
7:00 pm64 °FPassing clouds.9 mph73%30.09 "Hg5 mi
6:30 pm66 °FPassing clouds.13 mph68%30.09 "Hg5 mi
6:00 pm68 °FPassing clouds.13 mph60%30.09 "Hg5 mi
5:30 pm68 °FPassing clouds.15 mph60%30.09 "Hg5 mi
5:00 pm68 °FPassing clouds.15 mph56%30.09 "Hg5 mi
3:30 pm70 °FPassing clouds.15 mph50%30.09 "Hg5 mi
3:00 pm72 °FPassing clouds.15 mph50%30.09 "Hg5 mi
2:30 pm72 °FPassing clouds.16 mph50%30.09 "Hg5 mi
2:00 pm70 °FPassing clouds.15 mph53%30.12 "Hg5 mi
1:30 pm70 °FPassing clouds.15 mph53%30.12 "Hg5 mi
1:00 pm70 °FPassing clouds.15 mph53%30.15 "Hg5 mi
12:30 pm72 °FPassing clouds.12 mph50%30.15 "Hg5 mi
12:00 pm70 °FPassing clouds.7 mph53%30.15 "Hg5 mi
11:30 am70 °FPassing clouds.9 mph53%30.15 "Hg5 mi
11:00 am70 °FPassing clouds.7 mph53%30.15 "Hg5 mi
10:30 am68 °FPassing clouds.3 mph56%30.15 "Hg5 mi
10:00 am68 °FPassing clouds.3 mph56%30.15 "Hg5 mi
9:30 am64 °FPassing clouds.No wind73%30.15 "Hg5 mi
9:00 am59 °FPassing clouds.3 mph88%30.15 "Hg5 mi
8:30 am52 °FPassing clouds.No wind100%30.12 "Hg5 mi
8:00 am48 °FPassing clouds.No wind100%30.12 "Hg5 mi
7:30 am48 °FClear.No wind94%30.12 "Hg5 mi
7:00 am50 °FClear.3 mph94%30.09 "Hg5 mi
Weather by CustomWeather, © 2019

See weather overview